Location: Newark
(36.0797°N, 3.9744°E)
Time: 05:43:11
(UTC+00:00)

Tiros 1 - Pass Details

Date: 13 December 2019
Orbit: 630 x 664 km, 48.4° (Epoch: 20 January)

Event Time Altitude Azimuth Distance (km) Brightness Sun altitude
Exits shadow 03:42:40 19° 77° (ENE) 1,526 9.6 -36.1°
Drops below altitude 10° 03:44:11 10° 68° (ENE) 2,043 10.3 -35.8°
Sets 03:46:37 0° 61° (ENE) 2,950 11.2 -35.3°
